• In Deutschland
  • Länderverzeichnis
  • Für 7 Tage
  • Wassertemperatur
  • Satellitenkarten
  • Wetterkarte
  • Widgets
  • user-avatar
    Anmelden

    Stündliche Wetter Graz

    Heute, 24 August, Donnerstag

    Zeit Temperatur Niederschläge Wind Luftdruck Luftfeuchtigkeit
    00:00 +15°C° 0 mm 1 m/S 726 mmHg 83%
    01:00 +14°C° 0 mm 1 m/S 726 mmHg 84%
    02:00 +14°C° 0 mm 1 m/S 726 mmHg 85%
    03:00 +14°C° 0 mm 1 m/S 726 mmHg 85%
    04:00 +14°C° 0 mm 1 m/S 726 mmHg 85%
    05:00 +15°C° 0 mm 1 m/S 726 mmHg 81%
    06:00 +18°C° 0 mm 1 m/S 726 mmHg 76%
    07:00 +19°C° 0 mm 1 m/S 727 mmHg 71%
    08:00 +22°C° 0 mm 1 m/S 727 mmHg 63%
    09:00 +25°C° 0 mm 1 m/S 727 mmHg 54%
    10:00 +28°C° 0 mm 1 m/S 727 mmHg 45%
    11:00 +29°C° 0 mm 1 m/S 727 mmHg 42%
    12:00 +30°C° 0 mm 1 m/S 727 mmHg 39%
    13:00 +32°C° 0 mm 1 m/S 727 mmHg 36%
    14:00 +31°C° 0 mm 1 m/S 727 mmHg 37%
    15:00 +31°C° 0 mm 1 m/S 727 mmHg 39%
    16:00 +31°C° 0 mm 1 m/S 727 mmHg 41%
    17:00 +28°C° 0 mm 1 m/S 726 mmHg 50%
    18:00 +25°C° 0 mm 1 m/S 726 mmHg 59%
    19:00 +23°C° 0 mm 1 m/S 726 mmHg 68%
    20:00 +22°C° 0 mm 1 m/S 726 mmHg 70%
    21:00 +21°C° 0 mm 1 m/S 726 mmHg 72%
    22:00 +21°C° 0 mm 1 m/S 727 mmHg 74%
    23:00 +20°C° 0 mm 1 m/S 727 mmHg 76%

    Morgen, 25 August, Freitag

    Zeit Temperatur Niederschläge Wind Luftdruck Luftfeuchtigkeit
    00:00 +20°C° 0 mm 1 m/S 727 mmHg 77%
    01:00 +19°C° 0 mm 1 m/S 726 mmHg 79%
    02:00 +19°C° 0 mm 1 m/S 726 mmHg 80%
    03:00 +19°C° 0 mm 1 m/S 726 mmHg 82%
    04:00 +18°C° 0 mm 1 m/S 726 mmHg 83%
    05:00 +19°C° 0 mm 1 m/S 726 mmHg 80%
    06:00 +21°C° 0 mm 1 m/S 727 mmHg 76%
    07:00 +22°C° 0 mm 1 m/S 727 mmHg 73%
    08:00 +25°C° 0 mm 1 m/S 727 mmHg 64%
    09:00 +27°C° 0 mm 1 m/S 727 mmHg 54%
    10:00 +28°C° 0 mm 0 m/S 728 mmHg 45%
    11:00 +31°C° 0 mm 1 m/S 727 mmHg 42%
    12:00 +32°C° 0 mm 1 m/S 727 mmHg 39%
    13:00 +33°C° 0 mm 1 m/S 727 mmHg 37%
    14:00 +33°C° 0 mm 1 m/S 727 mmHg 38%
    15:00 +32°C° 0 mm 1 m/S 726 mmHg 39%
    16:00 +32°C° 0 mm 1 m/S 726 mmHg 40%
    17:00 +29°C° 0 mm 1 m/S 726 mmHg 48%
    18:00 +27°C° 0 mm 1 m/S 726 mmHg 57%
    19:00 +22°C° 0 mm 0 m/S 726 mmHg 65%
    20:00 +23°C° 0,2 mm 1 m/S 726 mmHg 68%
    21:00 +23°C° 0,2 mm 1 m/S 726 mmHg 71%
    22:00 +22°C° 0,2 mm 1 m/S 726 mmHg 74%
    23:00 +21°C° 0 mm 1 m/S 726 mmHg 75%

    übermorgen, 26 August, Samstag

    Zeit Temperatur Niederschläge Wind Luftdruck Luftfeuchtigkeit
    00:00 +21°C° 0 mm 1 m/S 726 mmHg 77%
    01:00 +21°C° 0 mm 1 m/S 726 mmHg 78%
    02:00 +20°C° 0 mm 1 m/S 726 mmHg 79%
    03:00 +20°C° 0 mm 1 m/S 726 mmHg 80%
    04:00 +20°C° 0 mm 1 m/S 726 mmHg 80%
    05:00 +21°C° 0 mm 1 m/S 726 mmHg 78%
    06:00 +22°C° 0 mm 1 m/S 726 mmHg 75%
    07:00 +23°C° 0 mm 1 m/S 726 mmHg 72%
    08:00 +26°C° 0 mm 1 m/S 727 mmHg 63%
    09:00 +29°C° 0 mm 1 m/S 727 mmHg 53%
    10:00 +30°C° 0 mm 0 m/S 727 mmHg 44%
    11:00 +33°C° 0 mm 1 m/S 727 mmHg 41%
    12:00 +33°C° 0 mm 1 m/S 727 mmHg 38%
    13:00 +34°C° 0 mm 1 m/S 727 mmHg 35%
    14:00 +34°C° 0 mm 1 m/S 726 mmHg 36%
    15:00 +33°C° 0 mm 1 m/S 726 mmHg 38%
    16:00 +33°C° 0 mm 1 m/S 726 mmHg 39%
    17:00 +30°C° 0 mm 1 m/S 726 mmHg 47%
    18:00 +26°C° 0 mm 0 m/S 725 mmHg 54%
    19:00 +23°C° 0 mm 0 m/S 725 mmHg 61%
    20:00 +22°C° 0,6 mm 0 m/S 725 mmHg 64%
    21:00 +24°C° 0,6 mm 1 m/S 725 mmHg 68%
    22:00 +23°C° 0,6 mm 1 m/S 726 mmHg 71%
    23:00 +23°C° 0 mm 1 m/S 726 mmHg 72%

    27 August, Sonntag

    Zeit Temperatur Niederschläge Wind Luftdruck Luftfeuchtigkeit
    00:00 +22°C° 0 mm 1 m/S 725 mmHg 73%
    01:00 +22°C° 0 mm 1 m/S 725 mmHg 73%
    02:00 +22°C° 0,1 mm 1 m/S 725 mmHg 74%
    03:00 +21°C° 0,1 mm 1 m/S 725 mmHg 75%
    04:00 +21°C° 0,1 mm 1 m/S 725 mmHg 77%
    05:00 +22°C° 0 mm 1 m/S 725 mmHg 75%
    06:00 +23°C° 0 mm 1 m/S 725 mmHg 73%
    07:00 +24°C° 0 mm 1 m/S 726 mmHg 71%
    08:00 +27°C° 0 mm 1 m/S 726 mmHg 61%
    09:00 +28°C° 0 mm 0 m/S 726 mmHg 51%
    10:00 +31°C° 0 mm 0 m/S 726 mmHg 41%
    11:00 +32°C° 0 mm 0 m/S 726 mmHg 38%
    12:00 +35°C° 0 mm 1 m/S 726 mmHg 35%
    13:00 +35°C° 0 mm 1 m/S 725 mmHg 32%
    14:00 +35°C° 0 mm 1 m/S 725 mmHg 34%
    15:00 +34°C° 0 mm 1 m/S 725 mmHg 35%
    16:00 +34°C° 0 mm 1 m/S 725 mmHg 37%
    17:00 +31°C° 0 mm 1 m/S 724 mmHg 44%
    18:00 +27°C° 0 mm 0 m/S 724 mmHg 51%
    19:00 +24°C° 0 mm 0 m/S 724 mmHg 58%
    20:00 +23°C° 0,2 mm 0 m/S 724 mmHg 61%
    21:00 +24°C° 0,2 mm 1 m/S 724 mmHg 64%
    22:00 +24°C° 0,2 mm 1 m/S 724 mmHg 67%
    23:00 +24°C° 0,1 mm 1 m/S 724 mmHg 68%

    28 August, Montag

    Zeit Temperatur Niederschläge Wind Luftdruck Luftfeuchtigkeit
    00:00 +23°C° 0,1 mm 1 m/S 724 mmHg 68%
    01:00 +23°C° 0,1 mm 1 m/S 724 mmHg 69%
    02:00 +23°C° 0,1 mm 1 m/S 724 mmHg 71%
    03:00 +23°C° 0,1 mm 2 m/S 724 mmHg 72%
    04:00 +21°C° 0,1 mm 2 m/S 724 mmHg 74%
    05:00 +23°C° 0,3 mm 1 m/S 725 mmHg 76%
    06:00 +23°C° 0,3 mm 1 m/S 725 mmHg 78%
    07:00 +23°C° 0,3 mm 1 m/S 726 mmHg 81%
    08:00 +26°C° 0,4 mm 1 m/S 726 mmHg 70%
    09:00 +28°C° 0,4 mm 1 m/S 726 mmHg 60%
    10:00 +31°C° 0,4 mm 1 m/S 726 mmHg 49%
    11:00 +32°C° 0,1 mm 1 m/S 726 mmHg 45%
    12:00 +33°C° 0,1 mm 1 m/S 726 mmHg 41%
    13:00 +34°C° 0,1 mm 1 m/S 726 mmHg 37%
    14:00 +33°C° 0 mm 1 m/S 726 mmHg 40%
    15:00 +32°C° 0 mm 1 m/S 726 mmHg 42%
    16:00 +31°C° 0 mm 1 m/S 726 mmHg 44%
    17:00 +29°C° 0 mm 1 m/S 726 mmHg 51%
    18:00 +27°C° 0 mm 1 m/S 726 mmHg 58%
    19:00 +25°C° 0 mm 1 m/S 726 mmHg 65%
    20:00 +24°C° 0 mm 1 m/S 726 mmHg 69%
    21:00 +23°C° 0 mm 1 m/S 726 mmHg 73%
    22:00 +22°C° 0 mm 1 m/S 727 mmHg 77%
    23:00 +22°C° 0 mm 1 m/S 727 mmHg 79%

    29 August, Dienstag

    Zeit Temperatur Niederschläge Wind Luftdruck Luftfeuchtigkeit
    00:00 +21°C° 0 mm 1 m/S 727 mmHg 81%
    01:00 +21°C° 0 mm 1 m/S 727 mmHg 83%
    02:00 +20°C° 0 mm 1 m/S 727 mmHg 84%
    03:00 +20°C° 0 mm 1 m/S 727 mmHg 86%
    04:00 +20°C° 0 mm 1 m/S 727 mmHg 87%
    05:00 +21°C° 0 mm 1 m/S 727 mmHg 84%
    06:00 +20°C° 0 mm 0 m/S 727 mmHg 81%
    07:00 +21°C° 0 mm 0 m/S 727 mmHg 78%
    08:00 +23°C° 0 mm 0 m/S 728 mmHg 69%
    09:00 +27°C° 0 mm 1 m/S 728 mmHg 61%
    10:00 +29°C° 0 mm 1 m/S 728 mmHg 53%
    11:00 +30°C° 0 mm 1 m/S 727 mmHg 50%
    12:00 +31°C° 0 mm 1 m/S 727 mmHg 46%
    13:00 +32°C° 0 mm 1 m/S 727 mmHg 43%
    14:00 +32°C° 0 mm 1 m/S 726 mmHg 44%
    15:00 +32°C° 0 mm 1 m/S 726 mmHg 44%
    16:00 +31°C° 0 mm 1 m/S 726 mmHg 45%
    17:00 +29°C° 0 mm 1 m/S 726 mmHg 53%
    18:00 +27°C° 0 mm 1 m/S 726 mmHg 62%
    19:00 +24°C° 0 mm 1 m/S 725 mmHg 70%
    20:00 +24°C° 0 mm 1 m/S 726 mmHg 72%
    21:00 +23°C° 0 mm 1 m/S 726 mmHg 75%
    22:00 +22°C° 0 mm 1 m/S 726 mmHg 77%
    23:00 +22°C° 0 mm 1 m/S 726 mmHg 78%
    Mehr zeigen